STARLINK-35138 (65420 NORAD) Tracking and Keplerian Element Data

This shows tracking and keplerian element data for the satellite.

Feedback or suggestion? Click here.




ElementValue
Catalog65420
NameSTARLINK-35138
Epoch Orbit1711
Epoch Day354.00352605
Epoch Year2025
RAAN247.4775
Inclination53.1578
Eccentricity0.0001255
Argument of Perigee76.2876
Mean Anonmoly283.8269
Mean Motion15.39627514
Decay Rate0.00021991
L11 65420U 25192S 25354.00352605 .00021991 00000+0 55802-3 0 9990
L22 65420 53.1578 247.4775 0001255 76.2876 283.8269 15.39627514 17114



Live tracking and technical data element details for STARLINK-35138 (NORAD 65420). STARLINK-35138 can be tracked NOW for your location showing map with azimuth and elevation plus other details from your city location.







IsCatalogInMostPopularTable: catalog: 65420, numindb: 15
Update: records affected: 1



GetName: 65420 STARLINK-35138

Hit Count: updated at: Thu, 21 May 2026 11:54:08 GMT